Location: Vihti�l�
(61.3833°N, 23.0667°E)
Time: 03:48:06
(UTC+00:00)

NOSS 2-2 (C) - Pass Details

Date: 29 November 2020
Orbit: 465 x 1743 km, 63.3° (Epoch: 12 January)

Event Time Altitude Azimuth Distance (km) Brightness Sun altitude
Exits shadow 04:32:03 34° 281° (W) 987 4.0 -16.9°
Maximum altitude 04:33:48 70° 355° (N) 684 3.6 -16.7°
Drops below altitude 10° 04:39:04 10° 80° (E) 2,383 7.6 -16.1°
Sets 04:41:56 0° 83° (E) 3,529 8.7 -15.8°
